Location: Lower Kingswood
(51.2667°N, 0.2167°W)
Time: 21:21:41
(UTC+00:00)

NOSS 3-1 (C) - Pass Details

Date: 26 September 2023
Orbit: 670 x 1537 km, 63.4° (Epoch: 01 December)

Event Time Altitude Azimuth Distance (km) Brightness Sun altitude
Rises 04:46:08 0° 313° (NW) 3,870 6.3 -11.2°
Reaches altitude 10° 04:48:44 10° 307° (NW) 3,032 5.7 -10.8°
Maximum altitude 04:55:36 43° 239° (WSW) 1,758 4.4 -9.7°
Drops below altitude 10° 05:03:42 10° 173° (S) 3,562 6.4 -8.5°
Sets 05:07:00 0° 167° (SSE) 4,608 7.1 -8.0°
